[[{"header":{"parameterUnit":"m.s-1","parameterCategory":1,"la1":30.2991,"la2":30.254,"lo1":-89.0895,"lo2":-89.0444,"dy":0.0017,"dx":0.0017,"nx":28,"ny":28,"refTime":"2025-12-10T03:00:00:Z","depth":0,"parameterNumber":2,"parameterNumberName":"U-component_of_WINDS"},"data":[0,0,0,0,0,0,0,0,0,0,0,0,0,0,0,0,0,0,0,0,0,0,0,0,0,0,0,0,0,0,0,0,0,0,0,0,0,0,0,0,0,0,0,0,0,0,0,0,0,0,0,0,0,0,0,0,0,0,0.1058,0.1058,0,0.1101,0.1102,0.1102,0.1147,0.1147,0.1148,0.1148,0.1191,0.1192,0.1193,0,0,0,0,0,0,0,0,0,0,0,0,0,0.1013,0.1013,0.1058,0.1059,0.1059,0.1101,0.1102,0.1102,0.1146,0.1147,0.1148,0.1149,0.1191,0.1192,0.1193,0,0,0,0,0,0,0,0,0,0,0,0,0,0.1042,0.1013,0.1058,0.1086,0.1089,0.1101,0.1102,0.1102,0.1146,0.1147,0.1148,0.1149,0.1191,0.1192,0.1193,0.118,0,0,0.1195,0.1196,0,0,0,0,0,0,0,0,0.104,0.1043,0.1082,0.1084,0.1088,0.1119,0.1101,0.1128,0.1146,0.1125,0.1148,0.1149,0.1167,0.117,0.1176,0.1182,0.1183,0.1195,0.1196,0.1196,0.1197,0,0,0,0,0,0,0,0.1038,0.1042,0.1075,0.1082,0.1086,0.1096,0.1101,0.1107,0.114,0.1127,0.113,0.1134,0.1169,0.1175,0.1177,0.1184,0.1195,0.1196,0.1197,0.1197,0.118,0.1179,0,0,0,0,0,0,0.1032,0.104,0.1074,0.1076,0.1066,0.1096,0.1102,0.1108,0.114,0.1146,0.1134,0.1136,0.1173,0.1176,0.1179,0.1164,0.1196,0.1197,0.1198,0.1181,0.118,0.1178,0,0,0,0,0,0,0.103,0.1034,0.1072,0.1059,0.1064,0.1096,0.1103,0.1109,0.1115,0.1145,0.1151,0.1134,0.1174,0.1177,0.1179,0.1166,0.1198,0.1198,0.1182,0.118,0.1179,0.1136,0,0,0,0,0,0,0.1029,0.1034,0.1029,0.1058,0.1065,0.1072,0.1102,0.1109,0.1116,0.112,0.1147,0.1152,0.1175,0.1177,0.118,0.1168,0.1199,0.1183,0.1181,0.1179,0.1139,0.1133,0.1129,0,0,0,0,0,0.1027,0.1016,0.1029,0.1033,0.106,0.1071,0.1075,0.1101,0.1115,0.1111,0.113,0.1152,0.1167,0.1177,0.118,0.1169,0.1184,0.1182,0.118,0.1141,0.1134,0.1129,0,0,0,0,0,0,0.0985,0.102,0.1035,0.1033,0.1048,0.1078,0.1074,0.1093,0.1105,0.1108,0.1139,0.1145,0.1142,0.1156,0.1166,0.1157,0.1179,0.1177,0.1148,0.1142,0.1137,0.1134,0.12,0,0,0,0,0,0.0975,0.0981,0.1011,0.1006,0.1013,0.1042,0.1048,0.1066,0.1084,0.109,0.111,0.1126,0.1134,0.1139,0.1148,0.1141,0.1147,0.1134,0.1129,0.1125,0.1123,0.1119,0.1113,0.1171,0.1171,0.1171,0,0,0.0955,0.0975,0.0977,0.0998,0.1013,0.1017,0.1047,0.1052,0.1055,0.1091,0.1093,0.1108,0.1127,0.1124,0.1123,0.1135,0.1108,0.1122,0.1119,0.1119,0.1116,0.111,0.1105,0.117,0.117,0.117,0,0,0.0921,0.0937,0.0934,0.0948,0.0969,0.0988,0.0987,0.1014,0.1025,0.1027,0.1054,0.1058,0.1073,0.1085,0.1093,0.1062,0.1082,0.1064,0.1038,0.1033,0.1028,0.1024,0.1012,0.1008,0.1062,0.1062,0.1062,0,0.0894,0.0902,0.093,0.0932,0.094,0.0973,0.0969,0.0981,0.1004,0.1008,0.1021,0.1039,0.1054,0.1053,0.1045,0.1051,0.105,0.1061,0.1027,0.1023,0.102,0.1009,0.1004,0.106,0.106,0.106,0.106,0,0.0867,0.0872,0.0867,0.0888,0.0896,0.0895,0.0922,0.0926,0.0943,0.0961,0.0962,0.0982,0.0995,0.0996,0.1014,0.0997,0.1004,0.1021,0.1044,0.1011,0.1001,0.0997,0.1056,0.1057,0.1058,0.1058,0,0,0.0808,0.0844,0.0841,0.085,0.0875,0.088,0.088,0.0893,0.0895,0.091,0.091,0.092,0.0936,0.0945,0.0964,0.096,0.0932,0.0978,0.0979,0.0968,0.0914,0.09,0.0895,0.0946,0.0945,0.0945,0.0912,0,0.0778,0.078,0.0805,0.08,0.0805,0.0835,0.0835,0.0849,0.0865,0.0871,0.0888,0.0894,0.0916,0.0921,0.0918,0.0936,0.0922,0.0939,0.0945,0.0945,0.0939,0.089,0.0876,0.0844,0.0908,0.0908,0.0907,0,0.0743,0.0755,0.075,0.0774,0.0777,0.0777,0.079,0.0795,0.0812,0.0823,0.0833,0.0854,0.0854,0.0876,0.0876,0.0887,0.0891,0.09,0.09,0.0901,0.0924,0.0889,0.0835,0.083,0.0902,0.0902,0.0902,0,0.0699,0.0714,0.0713,0.072,0.0748,0.0747,0.0758,0.0776,0.0782,0.0793,0.0797,0.0808,0.0814,0.0822,0.0845,0.0858,0.0842,0.0866,0.0851,0.085,0.0846,0.0846,0.0791,0.0849,0.0849,0.085,0.085,0,0.0663,0.0659,0.0694,0.0693,0.0689,0.0716,0.0711,0.0725,0.0741,0.0742,0.0769,0.077,0.0801,0.0805,0.0823,0.082,0.0823,0.0831,0.0836,0.0829,0.0827,0.0831,0.0834,0.0848,0.0849,0.0849,0.0849,0,0.0613,0.0637,0.0637,0.0663,0.067,0.0665,0.0687,0.0687,0.0704,0.0706,0.0708,0.0734,0.074,0.0764,0.0776,0.0788,0.0779,0.0788,0.0773,0.0776,0.0759,0.076,0.0705,0.0698,0.0761,0.0761,0.076,0,0.0588,0.0586,0.0611,0.0614,0.0624,0.0629,0.0635,0.0662,0.0666,0.0684,0.0682,0.069,0.0698,0.0706,0.0726,0.0735,0.0744,0.0724,0.0746,0.0738,0.0743,0.0742,0.0741,0.0719,0.0718,0.0718,0.0717,0,0.0541,0.0552,0.056,0.057,0.0577,0.0586,0.0598,0.0599,0.0628,0.0632,0.0639,0.0645,0.0656,0.0664,0.0675,0.0687,0.0706,0.071,0.0707,0.0699,0.069,0.0694,0.0759,0.0711,0.0712,0.0712,0.0713,0.0713,0.0502,0.0501,0.0518,0.0525,0.0536,0.0546,0.0547,0.0563,0.0569,0.0581,0.0596,0.06,0.0615,0.0633,0.0643,0.0646,0.0657,0.0653,0.0651,0.065,0.0645,0.069,0.0648,0.0648,0.0648,0.0649,0.0649,0,0.0456,0.0468,0.0474,0.0489,0.0494,0.0512,0.0525,0.0528,0.0531,0.0544,0.0551,0.0557,0.0564,0.0584,0.0593,0.0591,0.06,0.0592,0.0592,0.0594,0.0636,0.0637,0.0585,0.0585,0.0585,0.0585,0.0585,0.0585,0.0432,0.043,0.0443,0.0446,0.0458,0.0462,0.0468,0.0477,0.0487,0.0493,0.0499,0.0512,0.0527,0.0536,0.0543,0.0549,0.055,0.0539,0.0547,0.0585,0.0592,0.0597,0.0599,0.0539,0.0539,0.0506,0.0505,0.0505]},{"header":{"parameterUnit":"m.s-1","parameterCategory":1,"la1":30.2991,"la2":30.254,"lo1":-89.0895,"lo2":-89.0444,"dy":0.0017,"dx":0.0017,"nx":28,"ny":28,"refTime":"2025-12-10T03:00:00:Z","depth":0,"parameterNumber":3,"parameterNumberName":"V-component_of_WINDS"},"data":[0,0,0,0,0,0,0,0,0,0,0,0,0,0,0,0,0,0,0,0,0,0,0,0,0,0,0,0,0,0,0,0,0,0,0,0,0,0,0,0,0,0,0,0,0,0,0,0,0,0,0,0,0,0,0,0,0,0,0.9807,0.9806,0,0.9742,0.9742,0.9741,0.9753,0.9754,0.9755,0.9756,0.9687,0.9684,0.9681,0,0,0,0,0,0,0,0,0,0,0,0,0,0.9936,0.9934,0.9807,0.9806,0.9805,0.9743,0.9742,0.9741,0.9753,0.9754,0.9755,0.9757,0.9688,0.9684,0.9681,0,0,0,0,0,0,0,0,0,0,0,0,0,0.9877,0.9933,0.9807,0.9804,0.9803,0.9743,0.9742,0.974,0.9752,0.9754,0.9756,0.9757,0.9689,0.9684,0.968,0.9618,0,0,0.9667,0.9665,0,0,0,0,0,0,0,0,0.988,0.9872,0.9805,0.9804,0.9803,0.9757,0.9762,0.9699,0.9752,0.9771,0.9756,0.9758,0.9709,0.9703,0.9687,0.9615,0.9612,0.9666,0.9664,0.9662,0.9661,0,0,0,0,0,0,0,0.9884,0.9875,0.9781,0.9804,0.9802,0.9804,0.9798,0.975,0.9731,0.977,0.977,0.9763,0.9708,0.9691,0.9685,0.9611,0.9666,0.9663,0.966,0.9658,0.9484,0.9482,0,0,0,0,0,0,0.989,0.9878,0.9783,0.9779,0.9846,0.98,0.9793,0.977,0.9731,0.9727,0.9761,0.9764,0.9698,0.969,0.9683,0.9607,0.9662,0.9658,0.9655,0.9486,0.9484,0.9482,0,0,0,0,0,0,0.9892,0.9881,0.9786,0.9829,0.9817,0.9796,0.977,0.9768,0.9751,0.9725,0.9722,0.9747,0.9699,0.9689,0.9634,0.9604,0.9656,0.9652,0.9488,0.9485,0.9483,0.9455,0,0,0,0,0,0,0.9896,0.9882,0.9859,0.9828,0.9814,0.9739,0.9769,0.9765,0.9743,0.9746,0.9711,0.9707,0.9699,0.9641,0.963,0.9599,0.9648,0.9491,0.9487,0.9484,0.9458,0.9451,0.9445,0,0,0,0,0,0.9901,0.9853,0.9858,0.9846,0.9786,0.9738,0.973,0.9723,0.9741,0.9717,0.9701,0.9708,0.961,0.9635,0.9623,0.959,0.9493,0.9488,0.9484,0.9461,0.9452,0.9445,0,0,0,0,0,0,0.988,0.9849,0.9854,0.9795,0.9769,0.974,0.9709,0.9714,0.9681,0.9684,0.9676,0.9668,0.9612,0.9596,0.9625,0.9528,0.9554,0.9547,0.954,0.9532,0.9526,0.953,0.9645,0,0,0,0,0,0.9869,0.9834,0.9808,0.9759,0.9746,0.973,0.9709,0.9706,0.9678,0.9666,0.9646,0.9617,0.958,0.9555,0.952,0.9456,0.9448,0.9428,0.9422,0.9416,0.941,0.9373,0.9364,0.9467,0.9467,0.9467,0,0,0.9845,0.9824,0.9802,0.9754,0.9734,0.9696,0.972,0.968,0.9651,0.966,0.9607,0.9591,0.9558,0.9499,0.9472,0.9484,0.938,0.9411,0.9407,0.9403,0.9368,0.9358,0.9349,0.9464,0.9464,0.9465,0,0,0.9782,0.9763,0.9719,0.9698,0.9667,0.9657,0.9647,0.9616,0.9606,0.9554,0.9559,0.9525,0.9461,0.9437,0.9417,0.9345,0.935,0.9334,0.9299,0.9263,0.9255,0.9248,0.9221,0.9211,0.9327,0.9327,0.9327,0,0.9755,0.97,0.9696,0.9655,0.9633,0.9641,0.9595,0.9575,0.9533,0.9517,0.9532,0.9451,0.943,0.9364,0.9347,0.9331,0.9317,0.9336,0.9257,0.925,0.9243,0.9217,0.9207,0.9325,0.9326,0.9326,0.9326,0,0.9669,0.963,0.9598,0.9559,0.9534,0.9491,0.9479,0.9454,0.9453,0.9441,0.9386,0.9361,0.932,0.9305,0.9303,0.9238,0.9247,0.9259,0.9285,0.9231,0.9206,0.9196,0.9323,0.9323,0.9324,0.9324,0,0,0.9589,0.9549,0.9537,0.9519,0.9485,0.9454,0.9411,0.9372,0.935,0.9321,0.9284,0.923,0.9241,0.9218,0.9214,0.9184,0.9126,0.92,0.9199,0.9185,0.9051,0.9041,0.9029,0.913,0.9128,0.9127,0.9053,0,0.9522,0.9447,0.9442,0.9373,0.9336,0.9343,0.9306,0.928,0.9268,0.9234,0.922,0.9181,0.92,0.9186,0.9156,0.914,0.9099,0.9145,0.9093,0.9091,0.9099,0.9016,0.9005,0.8937,0.9044,0.9042,0.9041,0,0.9432,0.9402,0.933,0.9301,0.9285,0.9251,0.9215,0.9183,0.9154,0.9147,0.9122,0.9122,0.9076,0.9105,0.9041,0.9072,0.9051,0.9039,0.9037,0.903,0.9062,0.9006,0.8915,0.8904,0.9026,0.9027,0.9028,0,0.9379,0.932,0.9269,0.9254,0.9219,0.9195,0.9179,0.9152,0.9129,0.9096,0.9081,0.9044,0.9022,0.8993,0.8983,0.9005,0.8918,0.8946,0.891,0.891,0.889,0.8891,0.8792,0.8879,0.8879,0.8879,0.888,0,0.9303,0.9258,0.9245,0.9213,0.9163,0.9158,0.9108,0.9093,0.9069,0.9033,0.9038,0.9004,0.8994,0.8958,0.895,0.8897,0.8888,0.888,0.8877,0.8878,0.8879,0.8862,0.8866,0.8877,0.8877,0.8878,0.8878,0,0.9235,0.9224,0.9169,0.9141,0.9133,0.9097,0.9072,0.9041,0.903,0.8985,0.8974,0.8956,0.8914,0.8902,0.8852,0.8846,0.8783,0.8787,0.8793,0.8793,0.8756,0.8759,0.8642,0.8626,0.8725,0.8724,0.8723,0,0.9186,0.9152,0.9121,0.9098,0.9081,0.9045,0.9021,0.9014,0.8989,0.8954,0.8926,0.8885,0.8852,0.8785,0.8766,0.8727,0.8728,0.869,0.8722,0.8724,0.8725,0.8727,0.8722,0.8683,0.8682,0.8681,0.8681,0,0.91,0.9096,0.9063,0.9027,0.8999,0.8971,0.8943,0.8924,0.8913,0.8885,0.8842,0.8817,0.8766,0.8724,0.8685,0.8667,0.8671,0.8671,0.866,0.8659,0.8664,0.8659,0.8775,0.8673,0.8674,0.8675,0.8675,0.8675,0.9038,0.9008,0.8981,0.8943,0.8922,0.8896,0.8865,0.8851,0.8816,0.8775,0.8773,0.8726,0.8698,0.8645,0.8626,0.8589,0.8599,0.8584,0.858,0.8576,0.8572,0.8672,0.8582,0.8582,0.8582,0.8582,0.8582,0,0.8951,0.8934,0.89,0.8861,0.8831,0.884,0.881,0.8784,0.8743,0.8717,0.8684,0.8635,0.8595,0.8574,0.8534,0.8508,0.8509,0.8497,0.8498,0.8493,0.8565,0.8578,0.8497,0.8497,0.8497,0.8497,0.8497,0.8497,0.8901,0.885,0.8843,0.8781,0.8764,0.872,0.8702,0.8678,0.8656,0.8602,0.8569,0.8556,0.8531,0.8489,0.8452,0.8447,0.8431,0.8418,0.8413,0.848,0.8489,0.8497,0.8509,0.8415,0.8415,0.8344,0.8344,0.8343]}]]